Location: B?jaj?g
(11.7167°N, 92.6667°E)
Time: 12:58:22
(UTC+00:00)

Cosmos 1844 - Pass Details

Date: 18 September 2020
Orbit: 824 x 866 km, 70.9° (Epoch: 21 October)

Event Time Altitude Azimuth Distance (km) Brightness Sun altitude
Rises 12:28:03 0° 173° (S) 3,434 6.8 -10.6°
Reaches altitude 10° 12:30:50 10° 162° (SSE) 2,495 5.9 -11.3°
Maximum altitude 12:35:42 29° 104° (ESE) 1,530 4.5 -12.5°
Drops below altitude 10° 12:40:31 10° 46° (NE) 2,477 5.8 -13.7°
Sets 12:43:15 0° 35° (NE) 3,405 6.6 -14.3°
